Regional Weather Roundup
Issued by NWS

Home | Current Version | Previous Version | Graphics & Text | Print | Product List | Glossary On
Versions: 1 2 3 4 5 6 7 8 9 10 11 12 13 14 15 16 17 18 19 20 21 22 23 24 25 26 27 28 29 30 31 32 33 34 35 36 37 38 39 40 41 42 43 44 45 46 47 48 49 50
578
ASUS43 KLMK 260902
RWRKY
KENTUCKY REGIONAL WEATHER ROUNDUP
NATIONAL WEATHER SERVICE LOUISVILLE KY
500 AM EDT FRI MAY 26 2017

NOTE "FAIR" INDICATES FEW OR NO CLOUDS BELOW 12,000 FEET
WITH NO SIGNIFICANT WEATHER AND/OR OBSTRUCTIONS TO VISIBILITY.

KYZ001>023-026-027-061>063-070>075-261000-
WESTERN AND SOUTH CENTRAL KENTUCKY

CITY           SKY/WX    TMP DP  RH WIND       PRES   REMARKS
PADUCAH        CLEAR     60  51  72 S7        29.84S
HENDERSON      CLEAR     58  52  80 S5        29.86R
OWENSBORO      CLEAR     57  53  86 S6        29.86S
HOPKINSVILLE   CLEAR     57  53  84 S3        29.89S
BOWLING GREEN  PTCLDY    58  53  84 SW3       29.91R
GLASGOW        NOT AVBL
$$

KYZ024-025-028>034-038-045-046-053-261000-
NORTH CENTRAL KENTUCKY

CITY           SKY/WX    TMP DP  RH WIND       PRES   REMARKS
LOUISVILLE/SDF CLEAR     59  55  87 S3        29.86R
LOUISVILLE/LOU CLEAR     54  53  97 CALM      29.87R FOG
FORT KNOX      CLEAR     54  52  94 S5        29.86R
$$

KYZ035>037-039>044-047>052-055>060-089>105-261000-
NORTHEAST KENTUCKY

CITY           SKY/WX    TMP DP  RH WIND       PRES   REMARKS
LEXINGTON      CLEAR     54  52  93 S7        29.88S FOG
COVINGTON      CLEAR     53  52  96 SW3       29.84R
FRANKFORT      CLEAR     55  52  89 W3        29.86R FOG
$$

KYZ054-064>069-076>088-106>120-261000-
SOUTHEAST KENTUCKY

CITY           SKY/WX    TMP DP  RH WIND       PRES   REMARKS
JACKSON        CLEAR     55  54  96 SW3       29.90R
LONDON         CLEAR     52  50  93 CALM      29.93R FOG
SOMERSET       NOT AVBL
MIDDLESBORO    CLEAR     51  51 100 CALM      29.94R
MONTICELLO     MOSUNNY   48  48 100 W9        29.95R FOG
$$





USA.gov is the U.S. government's official web portal to all federal, state and local government web resources and services.